User: anonymous   Login
Location: Morehead State University
(38.1872°N, 83.4339°W)
Time: 21:42:31
(UTC-04:00)
Language:

Okean 2 - Orbit

View from above orbital plane
View from above orbital plane
View from above satellite
View from above satellite

Ground track
Ground track

The orbit data is extracted from the following two-line orbital elements,

1 20510U 90018A   18172.50576303 +.00000309 +00000-0 +23132-4 0  9991
2 20510 082.5147 176.7681 0012504 167.0873 350.6174 14.99160788515658
Epoch (UTC): 21 June 2018 12:08:17
Eccentricity: 0.0012504
inclination: 82.5147°
perigee height: 561 km
apogee height: 578 km
right ascension of ascending node: 176.7681°
argument of perigee: 167.0873°
revolutions per day: 14.99160788
mean anomaly at epoch: 350.6174°
orbit number at epoch: 51565

The dashed part of the orbit path shows where the satellite is in the earth's shadow,  

DLR